SCP
0 0 0 -0 -0 0 -0 -0 -0 -0 -0 -0 -0 -0 -0 -0 -0 -0 -0 -0 0 0 0 0 0 -0 -0 0 0 0 -0 -0 0 0 0 0 0 0 0 0 0 0 0 0 0 0 0
0 0 0 -0 -0 -0 -0 -0 -0 -0 -0 -0 -0 -0 -0 -0 -0 -0 -0 -0 -0 0 0 0 0 -0 0 0 0 -0 0 0 0 0 0 0 0 0 0 0 0 0 0 0 0 0 0
0 0 0 0 0 0 0 -0 -0 -0 -0 -0 -0 -0 -0 -0 0 0 -0 -0 -0 -0 -0 -0 -0 -0 -0 0 0 -0 -0 0 0 0 0 0 0 0 0 0 0 0 0 0 0 0 0
0 0 0 0 0 0 0 -0 -0 -0 -0 -0 -0 -0 -0 -0 -0 -0 0 -0 -0 -0 -0 -0 -0 -0 0 0 0 0 -0 0 0 0 0 0 0 0 0 0 0 0 0 0 0 0 0
0 0 0 0 0 0 0 -0 -0 -0 -0 -0 -0 -0 -0 -0 -0 -0 -0 -0 -0 -0 0 -0 -0 -0 0 0 0 0 -0 0 0 -0 0 0 0 0 0 0 0 0 0 0 0 0 0
-0 0 0 0 0 0 0 0 0 -0 -0 -0 -0 -0 -0 -0 -0 -0 -0 -0 0 0 0 0 -0 -0 0 0 0 -0 -0 -0 -0 0 -0 -0 0 0 0 0 0 0 0 0 0 0 0
-0 -0 -0 0 0 0 0 0 0 0 -0 -0 -0 -0 -0 -0 -0 -0 -0 0 0 0 0 -0 0 0 0 0 -0 -0 0 -0 -0 -0 0 0 0 0 0 0 0 0 0 0 0 0 0
-0 -0 -0 -0 0 0 0 0 0 -0 -0 -0 -0 -0 -0 -0 -0 -0 0 0 0 0 0 0 0 -0 0 0 0 0 0 -0 0 0 0 0 0 0 0 0 0 0 0 0 0 0 0
-0 -0 -0 -0 -0 -0 0 0 0 0 -0 -0 -0 -0 -0 -0 -0 0 0 0 0 0 0 0 0 -0 0 0 0 -0 0 -0 -0 -0 0 0 0 0 0 0 0 0 0 0 0 0 0
-0 -0 -0 -0 -0 -0 -0 0 0 -0 -0 -0 -0 -0 -0 -0 -0 0 0 0 0 0 0 0 0 0 0 0 -0 0 -0 0 -0 -0 0 0 0 0 0 0 0 0 0 0 0 0 0
0 0 0 0 0 -0 0 0 0 0 -0 -0 -0 -0 -0 0 0 0 0 0 0 0 0 0 0 0 0 0 0 0 0 -0 -0 -0 0 0 0 0 0 0 0 0 0 0 0 0 0
0 0 0 0 0 0 0 0 0 0 -0 -0 -0 -0 -0 0 0 0 0 0 0 0 0 0 0 0 0 0 0 0 0 0 0 -0 -0 -0 0 0 0 0 0 0 0 0 0 0 0
0 0 0 0 0 0 0 0 0 0 0 -0 -0 -0 0 0 0 0 0 0 0 -0 0 0 0 0 0 0 0 0 -0 -0 0 0 0 0 0 0 0 0 0 0 0 0 0 0 0
0 0 0 0 0 0 0 0 0 0 -0 -0 -0 -0 0 0 0 0 0 -0 0 0 0 0 0 0 0 0 0 0 0 0 0 0 0 0 0 0 0 0 0 0 0 0 0 0 0
0 0 0 0 0 0 0 0 0 0 -0 -0 -0 0 0 0 0 0 -0 -0 0 0 0 0 0 0 0 0 0 0 0 0 0 0 0 0 0 -0 -0 -0 0 0 0 -0 0 0 0
0 0 0 0 0 0 0 0 0 0 0 -0 0 0 0 0 0 0 0 0 0 0 0 0 0 0 0 -0 0 0 0 0 0 0 0 0 0 0 0 -0 -0 0 -0 0 0 -0 0
0 0 0 0 0 0 0 0 0 0 0 -0 0 0 0 0 0 0 0 0 0 0 0 0 0 0 0 -0 -0 -0 -0 0 0 0 -0 0 -0 -0 -0 -0 0 0 -0 0 0 0 0
0 0 0 0 0 0 0 0 0 0 0 0 0 0 0 0 0 0 0 0 0 0 0 0 0 0 0 0 -0 -0 -0 -0 0 0 0 0 -0 -0 -0 -0 0 -0 0 0 0 -0 -0
0 0 0 0 0 0 0 0 0 0 0 0 0 0 0 0 0 0 0 0 0 0 0 0 0 0 -0 -0 0 0 0 -0 -0 -0 0 0 0 -0 -0 0 0 0 0 -0 -0 -0 0
0 0 0 0 0 0 0 0 0 0 0 0 0 0 0 0 0 0 0 0 0 0 0 0 0 0 0 0 -0 0 0 0 0 -0 -0 -0 0 0 0 -0 -0 -0 -0 0 0 0 0
0 0 0 0 0 0 0 0 0 0 0 0 0 0 0 0 0 0 0 0 0 0 0 0 0 0 0 0 0 0 -0 0 0 0 0 0 0 -0 -0 -0 0 -0 -0 0 0 0 -0
0 0 0 0 0 0 0 0 0 0 0 0 0 0 0 0 0 0 0 0 0 0 0 -0 0 -0 0 -0 -0 -0 -0 -0 0 -0 0 0 0 0 0 -0 -0 0 0 -0 -0 0 0
0 0 0 0 0 0 0 0 0 0 0 0 0 0 0 0 0 0 0 0 0 0 0 0 0 -0 -0 0 -0 -0 -0 -0 -0 0 0 0 0 0 -0 -0 0 0 -0 -0 0 0 -0
0 0 0 0 0 0 0 0 0 0 0 0 0 0 0 0 0 0 0 0 0 0 -0 -0 -0 -0 0 -0 -0 -0 -0 -0 0 0 0 0 0 0 0 -0 0 0 0 0 0 0 0
0 0 0 0 0 0 0 0 0 0 0 0 0 0 0 0 0 0 0 0 0 0 -0 -0 -0 0 0 -0 -0 -0 0 0 0 0 0 0 0 0 0 0 0 -0 -0 0 0 0 0
0 0 0 0 0 0 0 0 0 0 0 0 0 0 0 0 0 0 0 0 0 0 0 0 0 -0 0 0 0 -0 -0 -0 -0 -0 0 0 0 0 0 0 0 0 0 0 0 -0 0
0 0 0 0 0 0 0 0 0 0 0 0 0 0 0 0 0 0 0 0 0 0 0 0 0 0 0 0 0 -0 -0 -0 -0 -0 0 0 0 0 0 0 0 0 0 0 0 0 0
0 0 0 0 0 0 0 0 0 0 0 0 0 0 0 0 0 0 0 0 0 0 0 -0 0 0 0 0 0 0 -0 -0 -0 0 0 0 0 0 0 0 0 -0 0 0 0 -0 0
0 0 0 0 0 0 0 0 0 0 0 0 0 0 0 0 0 0 0 0 -0 -0 0 0 0 0 0 0 0 0 -0 -0 -0 -0 -0 0 0 0 0 0 -0 -0 0 -0 -0 -0 -0
Wind_Speed_500mb
32 33 33 33 33 34 35 36 35 34 33 31 30 28 25 24 23 20 19 19 21 23 24 27 29 20 9 7 13 12 22 26 16 12 15 19 29 37 48 49 58 64 59 72 75 67 63
33 34 34 35 36 36 37 38 39 37 35 33 31 28 26 25 23 20 21 24 26 29 26 19 14 8 13 1 7 14 17 18 13 15 14 17 25 32 48 50 52 62 63 73 78 72 73
34 33 33 34 35 36 36 36 37 38 37 36 34 32 28 25 22 18 19 25 31 33 24 13 4 5 11 10 10 14 16 19 14 14 18 18 21 32 25 34 61 61 55 57 59 62 67
38 37 37 37 38 40 40 38 35 35 38 38 37 36 34 30 26 21 22 29 32 26 12 11 4 3 6 3 8 16 19 17 15 21 22 24 23 33 42 47 58 46 42 51 68 55 64
38 38 39 40 42 42 45 45 40 37 38 39 38 37 35 31 26 22 23 31 24 19 5 2 5 9 8 5 11 19 16 19 25 22 20 24 25 31 32 32 35 42 50 56 58 57 58
38 38 39 40 41 43 44 45 45 45 45 44 42 40 36 34 26 21 22 19 23 13 12 8 14 14 11 10 21 24 20 26 26 27 31 28 30 27 26 25 38 42 52 58 60 57 51
41 41 41 42 42 43 45 45 46 47 47 49 46 43 37 32 24 18 22 21 9 10 16 25 22 19 14 20 18 26 15 18 23 23 28 24 23 27 33 33 40 43 50 62 60 49 50
42 43 44 45 46 47 49 51 52 50 50 52 53 49 40 29 17 11 17 13 8 12 21 24 22 18 15 15 22 22 13 31 30 28 30 27 31 30 30 37 45 43 50 56 54 57 53
43 44 45 46 47 50 51 52 52 53 53 54 54 52 38 24 9 6 7 5 10 17 16 5 10 17 12 14 25 31 21 31 26 31 27 28 33 38 38 40 39 41 43 47 53 47 51
43 44 45 47 50 54 54 53 55 52 51 55 56 50 30 12 4 5 3 12 18 14 11 19 14 8 13 20 26 13 24 19 25 31 32 30 33 31 29 37 36 44 41 43 43 41 44
41 46 48 49 50 57 61 59 54 56 51 51 54 42 28 6 1 8 11 19 16 4 9 10 9 3 13 19 23 9 12 24 30 33 33 36 38 39 44 44 41 45 38 46 47 43 48
42 45 47 49 47 53 59 62 61 59 54 51 50 30 14 9 3 6 17 17 6 13 2 9 3 11 21 25 17 22 25 25 42 33 36 35 31 42 30 35 50 42 41 50 47 41 41
43 46 48 49 52 53 53 59 62 64 61 53 47 17 1 7 5 12 16 12 13 12 12 5 11 22 28 23 19 8 24 23 19 20 29 33 29 7 10 29 33 47 42 29 34 34 39
46 47 48 51 54 56 55 56 61 62 66 55 42 9 8 6 9 12 13 20 7 9 12 18 20 33 25 14 14 15 22 25 11 14 26 18 32 23 6 21 36 33 43 28 34 32 39
48 50 52 52 52 55 58 59 63 63 64 64 25 7 7 9 7 13 23 14 9 20 12 19 28 18 16 8 11 26 17 15 15 18 18 25 23 47 37 17 31 39 31 39 37 47 32
51 54 54 55 54 54 56 60 65 70 71 58 32 10 10 13 12 15 20 20 17 4 17 16 26 8 23 28 27 21 20 4 12 21 15 30 41 35 27 19 25 29 24 19 25 42 45
53 54 54 53 54 56 58 59 63 69 68 50 18 13 2 4 11 21 13 17 17 12 18 13 21 30 30 29 29 30 32 27 15 20 31 37 31 37 39 28 31 23 29 13 18 27 25
52 52 50 50 52 55 56 59 60 65 68 48 15 9 2 9 14 6 13 12 15 19 8 14 19 23 23 23 30 31 36 26 28 27 33 39 14 29 42 45 23 33 29 22 9 19 36
52 50 48 49 50 54 57 58 56 58 58 51 24 15 5 8 6 14 22 22 11 18 19 8 14 22 27 29 21 25 32 31 31 31 10 17 12 20 28 15 21 19 38 20 15 22 41
51 49 49 46 50 56 59 62 59 50 43 32 16 7 6 3 2 12 21 20 15 4 18 16 18 30 27 29 28 22 37 24 29 31 30 25 29 31 31 44 14 18 32 28 29 24 36
49 45 43 48 54 57 58 60 54 50 32 14 7 9 11 9 15 21 23 27 21 21 7 18 15 15 22 24 38 39 37 41 44 43 30 9 16 37 42 43 38 45 39 30 36 40 42
42 43 44 50 56 59 56 52 49 51 25 10 17 13 23 34 20 16 6 20 20 17 25 30 33 30 22 34 31 49 44 39 25 26 16 8 15 30 41 42 42 44 42 36 38 42 55
40 44 47 53 58 58 53 42 39 38 23 11 14 11 14 21 16 15 10 14 19 24 23 21 36 33 37 38 45 54 56 60 46 23 26 11 13 22 36 39 33 35 37 37 37 41 47
43 50 54 56 55 55 48 38 29 22 13 11 10 15 8 14 19 18 29 27 27 26 33 45 44 40 38 50 60 62 61 56 35 22 23 7 18 16 19 25 22 21 20 28 31 35 28
49 53 53 53 52 47 42 35 27 18 13 13 15 10 7 12 28 33 16 25 36 32 34 39 34 27 37 42 22 23 2 10 14 25 23 16 3 8 9 15 29 44 25 16 18 40 38
50 52 49 50 49 42 37 34 30 21 20 15 17 21 13 12 15 33 43 30 17 21 27 16 24 28 24 11 13 12 7 12 10 15 11 14 14 7 9 10 9 4 16 15 15 34 17
51 50 50 50 46 41 37 33 30 25 19 16 18 19 21 26 35 19 25 26 28 21 15 30 18 14 6 7 6 6 10 17 9 10 12 15 6 15 21 17 15 17 19 22 11 11 35
51 49 51 50 46 41 38 35 31 27 23 18 22 24 31 37 59 56 44 38 31 27 17 21 20 2 16 7 6 7 7 8 8 22 19 7 6 6 7 10 3 31 14 7 22 52 44
48 48 49 49 47 43 40 35 32 28 24 20 27 16 30 36 49 63 64 61 62 54 35 14 13 19 9 6 8 10 10 9 20 10 17 8 8 5 6 10 41 44 34 47 46 48 57
Wind_Direction_500mb
27 22 19 19 18 14 12 9 6 1 355 348 343 340 340 340 341 338 332 327 335 336 338 345 348 4 92 205 43 330 350 341 350 317 291 267 257 252 248 244 245 243 247 249 252 255 260
24 22 20 17 12 10 9 7 5 4 0 353 346 341 338 336 336 334 326 323 327 329 334 351 0 359 343 210 350 339 336 337 318 315 296 274 264 262 276 267 251 256 252 253 254 252 250
27 24 19 13 8 4 2 1 1 1 1 357 350 342 336 333 328 322 324 322 322 320 322 350 56 59 302 35 350 342 343 331 313 300 294 295 290 267 266 255 250 260 263 265 261 245 248
23 20 18 16 15 10 5 1 359 359 358 356 351 344 339 334 329 323 327 326 323 326 323 341 25 222 298 32 2 348 334 332 320 309 284 283 285 277 267 265 275 278 265 252 243 247 249
24 21 18 17 14 11 9 7 3 357 354 353 350 343 337 333 324 321 325 331 336 342 350 42 31 240 187 272 347 331 326 315 314 304 292 278 280 275 268 249 255 246 251 248 257 244 239
18 17 15 14 11 8 6 5 4 359 353 349 347 343 336 334 325 326 331 344 332 340 344 304 258 247 211 324 319 322 306 304 303 303 291 248 267 251 245 236 247 255 245 248 254 256 246
15 12 10 8 6 4 3 2 1 358 353 348 345 342 336 329 323 334 345 321 293 218 246 289 304 282 293 313 314 322 330 312 296 278 274 287 287 260 276 281 278 280 274 276 277 274 244
13 10 6 2 360 358 358 357 356 355 354 349 344 341 335 323 315 341 22 357 5 327 299 274 259 256 275 299 302 320 303 312 306 295 300 277 254 263 261 269 278 279 278 272 275 270 278
13 11 9 5 1 357 354 352 351 350 350 348 344 340 338 328 311 343 324 342 331 320 267 155 224 238 261 273 305 300 301 306 285 288 295 295 298 306 289 274 270 271 266 273 280 286 273
9 8 7 5 4 1 354 350 351 349 348 346 344 342 342 348 69 313 223 325 327 302 270 135 192 171 246 298 275 300 293 284 283 289 300 290 290 270 274 269 269 271 269 273 276 269 259
2 3 3 2 2 2 5 360 352 352 349 347 344 343 341 237 299 317 307 321 308 266 264 114 151 29 268 274 308 285 305 281 278 295 294 291 292 285 278 276 279 275 277 274 267 263 267
353 354 355 357 358 0 359 0 1 355 352 350 346 345 12 71 63 315 328 316 303 232 356 166 271 260 293 301 291 282 283 258 258 258 259 277 329 286 308 328 297 288 282 271 262 258 253
345 346 346 348 349 352 355 354 356 360 354 350 345 335 245 136 326 316 321 293 245 279 117 113 321 314 311 293 307 300 308 296 300 321 307 314 306 247 248 322 294 256 258 261 253 244 252
348 346 345 343 344 343 347 348 351 353 354 352 346 312 227 239 298 312 313 260 303 319 332 358 311 303 275 357 317 301 297 292 308 286 306 334 308 323 314 289 301 283 250 244 261 260 257
349 346 344 342 340 340 343 345 347 349 352 349 359 340 244 251 280 316 280 262 319 7 359 322 310 301 330 276 253 292 299 328 318 346 318 305 306 318 301 280 296 276 251 253 268 281 270
347 345 344 343 343 341 343 347 348 346 347 347 345 288 215 273 280 296 259 268 293 2 309 303 295 306 315 320 311 320 311 10 279 279 292 294 295 303 294 289 248 251 281 258 239 260 263
345 346 347 347 348 348 351 349 347 347 350 351 350 280 175 308 282 252 274 312 332 327 312 300 316 308 305 314 307 309 303 309 331 329 310 301 297 290 292 264 279 249 246 189 262 231 271
344 345 347 349 351 348 347 347 347 347 347 2 345 280 340 345 260 218 266 8 315 286 269 268 286 304 299 317 308 300 297 309 310 324 311 305 289 286 279 283 219 262 266 313 233 286 264
345 344 345 344 346 346 346 346 347 348 350 344 322 293 305 336 310 327 316 309 271 289 292 308 279 294 301 300 298 281 295 308 309 313 324 357 284 305 292 247 32 354 311 280 282 269 264
342 342 342 345 345 346 346 342 342 344 347 346 310 300 180 354 206 304 325 310 314 287 290 293 308 295 289 291 296 277 290 302 297 288 286 294 261 257 269 288 244 237 233 254 275 264 276
339 343 347 344 343 343 345 345 347 349 356 5 312 38 357 306 335 327 301 299 294 297 264 277 286 298 303 302 303 295 301 314 309 299 282 210 266 273 272 277 278 278 283 271 266 269 267
340 341 341 339 338 340 340 344 347 349 11 344 335 347 333 293 287 284 295 301 312 327 326 308 293 308 307 282 282 291 295 295 293 299 299 242 275 289 288 280 267 264 262 257 259 268 273
336 336 334 332 332 333 336 341 347 359 34 21 345 322 319 297 295 289 331 314 310 325 297 291 316 306 289 293 301 294 285 276 269 244 270 261 280 288 280 276 286 270 271 266 261 262 260
332 333 333 332 333 333 334 337 342 351 9 347 327 332 298 297 325 314 317 297 283 294 283 289 290 285 296 304 298 286 268 259 269 252 220 229 238 242 266 299 265 281 355 349 325 310 289
334 333 333 335 336 335 335 338 335 317 297 315 302 277 278 285 317 294 283 320 295 293 285 286 289 294 308 308 299 307 351 214 215 227 193 197 228 262 256 241 277 289 321 331 304 280 291
333 334 336 338 336 334 334 337 332 315 295 290 292 257 257 299 236 332 311 298 315 299 296 276 318 305 298 284 294 282 307 322 332 325 134 167 207 251 281 262 274 6 72 11 299 273 33
332 333 335 335 335 333 334 334 329 320 298 277 277 282 252 266 282 298 291 318 302 291 279 298 331 314 272 257 271 289 312 339 320 320 297 306 228 232 250 252 265 49 355 327 237 339 340
330 330 332 332 332 331 332 331 326 318 305 286 275 268 267 272 283 281 279 278 278 255 257 311 315 353 290 264 321 337 313 310 303 286 288 269 290 305 292 267 345 341 348 233 315 309 308
328 328 330 330 329 328 327 328 326 321 309 287 287 279 275 265 266 287 283 271 258 251 251 231 283 313 289 313 349 330 312 295 313 296 328 302 205 260 202 287 300 309 297 298 289 277 289
Wind_Speed_850mb
32 33 33 33 33 34 35 36 35 34 33 31 30 28 25 24 23 20 19 19 21 23 24 27 29 20 9 7 13 12 22 26 16 12 15 19 29 37 48 49 58 64 59 72 75 67 63
33 34 34 35 36 36 37 38 39 37 35 33 31 28 26 25 23 20 21 24 26 29 26 19 14 8 13 1 7 14 17 18 13 15 14 17 25 32 48 50 52 62 63 73 78 72 73
34 33 33 34 35 36 36 36 37 38 37 36 34 32 28 25 22 18 19 25 31 33 24 13 4 5 11 10 10 14 16 19 14 14 18 18 21 32 25 34 61 61 55 57 59 62 67
38 37 37 37 38 40 40 38 35 35 38 38 37 36 34 30 26 21 22 29 32 26 12 11 4 3 6 3 8 16 19 17 15 21 22 24 23 33 42 47 58 46 42 51 68 55 64
38 38 39 40 42 42 45 45 40 37 38 39 38 37 35 31 26 22 23 31 24 19 5 2 5 9 8 5 11 19 16 19 25 22 20 24 25 31 32 32 35 42 50 56 58 57 58
38 38 39 40 41 43 44 45 45 45 45 44 42 40 36 34 26 21 22 19 23 13 12 8 14 14 11 10 21 24 20 26 26 27 31 28 30 27 26 25 38 42 52 58 60 57 51
41 41 41 42 42 43 45 45 46 47 47 49 46 43 37 32 24 18 22 21 9 10 16 25 22 19 14 20 18 26 15 18 23 23 28 24 23 27 33 33 40 43 50 62 60 49 50
42 43 44 45 46 47 49 51 52 50 50 52 53 49 40 29 17 11 17 13 8 12 21 24 22 18 15 15 22 22 13 31 30 28 30 27 31 30 30 37 45 43 50 56 54 57 53
43 44 45 46 47 50 51 52 52 53 53 54 54 52 38 24 9 6 7 5 10 17 16 5 10 17 12 14 25 31 21 31 26 31 27 28 33 38 38 40 39 41 43 47 53 47 51
43 44 45 47 50 54 54 53 55 52 51 55 56 50 30 12 4 5 3 12 18 14 11 19 14 8 13 20 26 13 24 19 25 31 32 30 33 31 29 37 36 44 41 43 43 41 44
41 46 48 49 50 57 61 59 54 56 51 51 54 42 28 6 1 8 11 19 16 4 9 10 9 3 13 19 23 9 12 24 30 33 33 36 38 39 44 44 41 45 38 46 47 43 48
42 45 47 49 47 53 59 62 61 59 54 51 50 30 14 9 3 6 17 17 6 13 2 9 3 11 21 25 17 22 25 25 42 33 36 35 31 42 30 35 50 42 41 50 47 41 41
43 46 48 49 52 53 53 59 62 64 61 53 47 17 1 7 5 12 16 12 13 12 12 5 11 22 28 23 19 8 24 23 19 20 29 33 29 7 10 29 33 47 42 29 34 34 39
46 47 48 51 54 56 55 56 61 62 66 55 42 9 8 6 9 12 13 20 7 9 12 18 20 33 25 14 14 15 22 25 11 14 26 18 32 23 6 21 36 33 43 28 34 32 39
48 50 52 52 52 55 58 59 63 63 64 64 25 7 7 9 7 13 23 14 9 20 12 19 28 18 16 8 11 26 17 15 15 18 18 25 23 47 37 17 31 39 31 39 37 47 32
51 54 54 55 54 54 56 60 65 70 71 58 32 10 10 13 12 15 20 20 17 4 17 16 26 8 23 28 27 21 20 4 12 21 15 30 41 35 27 19 25 29 24 19 25 42 45
53 54 54 53 54 56 58 59 63 69 68 50 18 13 2 4 11 21 13 17 17 12 18 13 21 30 30 29 29 30 32 27 15 20 31 37 31 37 39 28 31 23 29 13 18 27 25
52 52 50 50 52 55 56 59 60 65 68 48 15 9 2 9 14 6 13 12 15 19 8 14 19 23 23 23 30 31 36 26 28 27 33 39 14 29 42 45 23 33 29 22 9 19 36
52 50 48 49 50 54 57 58 56 58 58 51 24 15 5 8 6 14 22 22 11 18 19 8 14 22 27 29 21 25 32 31 31 31 10 17 12 20 28 15 21 19 38 20 15 22 41
51 49 49 46 50 56 59 62 59 50 43 32 16 7 6 3 2 12 21 20 15 4 18 16 18 30 27 29 28 22 37 24 29 31 30 25 29 31 31 44 14 18 32 28 29 24 36
49 45 43 48 54 57 58 60 54 50 32 14 7 9 11 9 15 21 23 27 21 21 7 18 15 15 22 24 38 39 37 41 44 43 30 9 16 37 42 43 38 45 39 30 36 40 42
42 43 44 50 56 59 56 52 49 51 25 10 17 13 23 34 20 16 6 20 20 17 25 30 33 30 22 34 31 49 44 39 25 26 16 8 15 30 41 42 42 44 42 36 38 42 55
40 44 47 53 58 58 53 42 39 38 23 11 14 11 14 21 16 15 10 14 19 24 23 21 36 33 37 38 45 54 56 60 46 23 26 11 13 22 36 39 33 35 37 37 37 41 47
43 50 54 56 55 55 48 38 29 22 13 11 10 15 8 14 19 18 29 27 27 26 33 45 44 40 38 50 60 62 61 56 35 22 23 7 18 16 19 25 22 21 20 28 31 35 28
49 53 53 53 52 47 42 35 27 18 13 13 15 10 7 12 28 33 16 25 36 32 34 39 34 27 37 42 22 23 2 10 14 25 23 16 3 8 9 15 29 44 25 16 18 40 38
50 52 49 50 49 42 37 34 30 21 20 15 17 21 13 12 15 33 43 30 17 21 27 16 24 28 24 11 13 12 7 12 10 15 11 14 14 7 9 10 9 4 16 15 15 34 17
51 50 50 50 46 41 37 33 30 25 19 16 18 19 21 26 35 19 25 26 28 21 15 30 18 14 6 7 6 6 10 17 9 10 12 15 6 15 21 17 15 17 19 22 11 11 35
51 49 51 50 46 41 38 35 31 27 23 18 22 24 31 37 59 56 44 38 31 27 17 21 20 2 16 7 6 7 7 8 8 22 19 7 6 6 7 10 3 31 14 7 22 52 44
48 48 49 49 47 43 40 35 32 28 24 20 27 16 30 36 49 63 64 61 62 54 35 14 13 19 9 6 8 10 10 9 20 10 17 8 8 5 6 10 41 44 34 47 46 48 57
Wind_Direction_850mb
27 22 19 19 18 14 12 9 6 1 355 348 343 340 340 340 341 338 332 327 335 336 338 345 348 4 92 205 43 330 350 341 350 317 291 267 257 252 248 244 245 243 247 249 252 255 260
24 22 20 17 12 10 9 7 5 4 0 353 346 341 338 336 336 334 326 323 327 329 334 351 0 359 343 210 350 339 336 337 318 315 296 274 264 262 276 267 251 256 252 253 254 252 250
27 24 19 13 8 4 2 1 1 1 1 357 350 342 336 333 328 322 324 322 322 320 322 350 56 59 302 35 350 342 343 331 313 300 294 295 290 267 266 255 250 260 263 265 261 245 248
23 20 18 16 15 10 5 1 359 359 358 356 351 344 339 334 329 323 327 326 323 326 323 341 25 222 298 32 2 348 334 332 320 309 284 283 285 277 267 265 275 278 265 252 243 247 249
24 21 18 17 14 11 9 7 3 357 354 353 350 343 337 333 324 321 325 331 336 342 350 42 31 240 187 272 347 331 326 315 314 304 292 278 280 275 268 249 255 246 251 248 257 244 239
18 17 15 14 11 8 6 5 4 359 353 349 347 343 336 334 325 326 331 344 332 340 344 304 258 247 211 324 319 322 306 304 303 303 291 248 267 251 245 236 247 255 245 248 254 256 246
15 12 10 8 6 4 3 2 1 358 353 348 345 342 336 329 323 334 345 321 293 218 246 289 304 282 293 313 314 322 330 312 296 278 274 287 287 260 276 281 278 280 274 276 277 274 244
13 10 6 2 360 358 358 357 356 355 354 349 344 341 335 323 315 341 22 357 5 327 299 274 259 256 275 299 302 320 303 312 306 295 300 277 254 263 261 269 278 279 278 272 275 270 278
13 11 9 5 1 357 354 352 351 350 350 348 344 340 338 328 311 343 324 342 331 320 267 155 224 238 261 273 305 300 301 306 285 288 295 295 298 306 289 274 270 271 266 273 280 286 273
9 8 7 5 4 1 354 350 351 349 348 346 344 342 342 348 69 313 223 325 327 302 270 135 192 171 246 298 275 300 293 284 283 289 300 290 290 270 274 269 269 271 269 273 276 269 259
2 3 3 2 2 2 5 360 352 352 349 347 344 343 341 237 299 317 307 321 308 266 264 114 151 29 268 274 308 285 305 281 278 295 294 291 292 285 278 276 279 275 277 274 267 263 267
353 354 355 357 358 0 359 0 1 355 352 350 346 345 12 71 63 315 328 316 303 232 356 166 271 260 293 301 291 282 283 258 258 258 259 277 329 286 308 328 297 288 282 271 262 258 253
345 346 346 348 349 352 355 354 356 360 354 350 345 335 245 136 326 316 321 293 245 279 117 113 321 314 311 293 307 300 308 296 300 321 307 314 306 247 248 322 294 256 258 261 253 244 252
348 346 345 343 344 343 347 348 351 353 354 352 346 312 227 239 298 312 313 260 303 319 332 358 311 303 275 357 317 301 297 292 308 286 306 334 308 323 314 289 301 283 250 244 261 260 257
349 346 344 342 340 340 343 345 347 349 352 349 359 340 244 251 280 316 280 262 319 7 359 322 310 301 330 276 253 292 299 328 318 346 318 305 306 318 301 280 296 276 251 253 268 281 270
347 345 344 343 343 341 343 347 348 346 347 347 345 288 215 273 280 296 259 268 293 2 309 303 295 306 315 320 311 320 311 10 279 279 292 294 295 303 294 289 248 251 281 258 239 260 263
345 346 347 347 348 348 351 349 347 347 350 351 350 280 175 308 282 252 274 312 332 327 312 300 316 308 305 314 307 309 303 309 331 329 310 301 297 290 292 264 279 249 246 189 262 231 271
344 345 347 349 351 348 347 347 347 347 347 2 345 280 340 345 260 218 266 8 315 286 269 268 286 304 299 317 308 300 297 309 310 324 311 305 289 286 279 283 219 262 266 313 233 286 264
345 344 345 344 346 346 346 346 347 348 350 344 322 293 305 336 310 327 316 309 271 289 292 308 279 294 301 300 298 281 295 308 309 313 324 357 284 305 292 247 32 354 311 280 282 269 264
342 342 342 345 345 346 346 342 342 344 347 346 310 300 180 354 206 304 325 310 314 287 290 293 308 295 289 291 296 277 290 302 297 288 286 294 261 257 269 288 244 237 233 254 275 264 276
339 343 347 344 343 343 345 345 347 349 356 5 312 38 357 306 335 327 301 299 294 297 264 277 286 298 303 302 303 295 301 314 309 299 282 210 266 273 272 277 278 278 283 271 266 269 267
340 341 341 339 338 340 340 344 347 349 11 344 335 347 333 293 287 284 295 301 312 327 326 308 293 308 307 282 282 291 295 295 293 299 299 242 275 289 288 280 267 264 262 257 259 268 273
336 336 334 332 332 333 336 341 347 359 34 21 345 322 319 297 295 289 331 314 310 325 297 291 316 306 289 293 301 294 285 276 269 244 270 261 280 288 280 276 286 270 271 266 261 262 260
332 333 333 332 333 333 334 337 342 351 9 347 327 332 298 297 325 314 317 297 283 294 283 289 290 285 296 304 298 286 268 259 269 252 220 229 238 242 266 299 265 281 355 349 325 310 289
334 333 333 335 336 335 335 338 335 317 297 315 302 277 278 285 317 294 283 320 295 293 285 286 289 294 308 308 299 307 351 214 215 227 193 197 228 262 256 241 277 289 321 331 304 280 291
333 334 336 338 336 334 334 337 332 315 295 290 292 257 257 299 236 332 311 298 315 299 296 276 318 305 298 284 294 282 307 322 332 325 134 167 207 251 281 262 274 6 72 11 299 273 33
332 333 335 335 335 333 334 334 329 320 298 277 277 282 252 266 282 298 291 318 302 291 279 298 331 314 272 257 271 289 312 339 320 320 297 306 228 232 250 252 265 49 355 327 237 339 340
330 330 332 332 332 331 332 331 326 318 305 286 275 268 267 272 283 281 279 278 278 255 257 311 315 353 290 264 321 337 313 310 303 286 288 269 290 305 292 267 345 341 348 233 315 309 308
328 328 330 330 329 328 327 328 326 321 309 287 287 279 275 265 266 287 283 271 258 251 251 231 283 313 289 313 349 330 312 295 313 296 328 302 205 260 202 287 300 309 297 298 289 277 289